FW1908 Weather Reports


Display with metric or nautical units.
time (UTC)temp
F
wind
direction
speed
MPH
gust
MPH
rain 1hr
in
rain 24hr
in
rain mn
in
humidity
%
barometer
mb
20260906232316 79 69 4.0 10.0 0.00 0.01 0.01 83 1012.8
20260906231813 79 59 3.0 9.0 0.00 0.01 0.01 83 1012.8
20260906231531 79 105 3.0 9.0 0.00 0.01 0.01 83 1012.8
20260906231031 79 88 2.0 8.0 0.00 0.01 0.01 83 1012.7
20260906230310 79 93 2.0 6.0 0.00 0.01 0.01 83 1012.6
20260906225308 79 94 2.0 7.0 0.00 0.01 0.01 83 1012.4
20260906224808 79 91 2.0 7.0 0.00 0.01 0.01 83 1012.3
20260906224306 79 96 1.0 3.0 0.00 0.01 0.01 83 1012.3
20260906223806 79 67 1.0 4.0 0.00 0.01 0.01 83 1012.2
20260906223303 79 67 1.0 4.0 0.00 0.01 0.01 83 1012.1
20260906222804 79 80 0.0 4.0 0.00 0.01 0.01 83 1012.0
20260906222306 79 84 1.0 4.0 0.00 0.01 0.01 82 1011.8
20260906221801 80 84 1.0 4.0 0.01 0.01 0.01 82 1011.6
20260906221520 80 55 0.0 4.0 0.01 0.01 0.01 82 1011.7
20260906220757 80 66 0.0 1.0 0.01 0.01 0.01 81 1011.9
20260906220254 80 66 0.0 2.0 0.01 0.01 0.01 81 1011.8
20260906215754 80 66 0.0 2.0 0.01 0.01 0.01 80 1011.8
20260906215253 81 66 0.0 2.0 0.01 0.01 0.01 79 1011.7
20260906214751 81 65 0.0 2.0 0.01 0.01 0.01 78 1011.7
20260906214251 81 64 0.0 1.0 0.01 0.01 0.01 77 1011.9
20260906213750 82 64 0.0 2.0 0.01 0.01 0.01 77 1012.2
20260906213513 82 64 0.0 2.0 0.01 0.01 0.01 76 1012.3
20260906212748 83 64 0.0 2.0 0.01 0.01 0.01 74 1012.3
20260906212248 83 64 1.0 4.0 0.01 0.01 0.01 73 1012.1
20260906211748 84 64 1.0 4.0 0.00 0.00 0.00 71 1012.0
20260906210748 84 69 1.0 3.0 0.00 0.00 0.00 67 1012.6
20260906210243 85 9 1.0 3.0 0.00 0.00 0.00 66 1012.8
20260906205743 85 9 1.0 3.0 0.00 0.00 0.00 65 1012.8
20260906205244 85 5 1.0 4.0 0.00 0.00 0.00 65 1012.8
20260906204743 86 0 2.0 5.0 0.00 0.00 0.00 64 1012.6
20260906204244 86 85 1.0 5.0 0.00 0.00 0.00 64 1012.6
20260906203744 86 95 1.0 3.0 0.00 0.00 0.00 63 1012.6
20260906203243 86 95 2.0 6.0 0.00 0.00 0.00 62 1012.4
20260906202743 87 96 2.0 6.0 0.00 0.00 0.00 63 1012.5
20260906202504 87 74 2.0 6.0 0.00 0.00 0.00 60 1012.6
20260906201744 87 339 2.0 5.0 0.00 0.00 0.00 60 1012.6
20260906201243 87 58 1.0 4.0 0.00 0.00 0.00 59 1012.4
20260906201004 88 32 1.0 4.0 0.00 0.00 0.00 58 1012.5
20260906195743 88 22 2.0 5.0 0.00 0.00 0.00 57 1012.4
20260906195243 88 80 2.0 7.0 0.00 0.00 0.00 55 1012.4
20260906194743 89 342 2.0 7.0 0.00 0.00 0.00 57 1012.4
20260906194243 89 65 2.0 8.0 0.00 0.00 0.00 55 1012.4
20260906193743 89 38 3.0 9.0 0.00 0.00 0.00 55 1012.6
20260906193244 89 94 4.0 10.0 0.00 0.00 0.00 56 1012.7
20260906192744 89 100 3.0 10.0 0.00 0.00 0.00 56 1012.7
20260906192244 89 48 3.0 8.0 0.00 0.00 0.00 56 1012.7
20260906191741 89 5 3.0 6.0 0.00 0.00 0.00 54 1012.8
20260906191242 89 74 2.0 6.0 0.00 0.00 0.00 57 1012.9
20260906190741 89 109 3.0 9.0 0.00 0.00 0.00 57 1012.8
20260906190241 89 100 5.0 10.0 0.00 0.00 0.00 59 1012.8
20260906185739 89 111 4.0 10.0 0.00 0.00 0.00 58 1012.8
20260906185237 89 85 4.0 12.0 0.00 0.00 0.00 58 1012.8
20260906184735 89 27 5.0 12.0 0.00 0.00 0.00 59 1012.9
20260906184459 89 69 3.0 10.0 0.00 0.00 0.00 59 1013.0
20260906183727 89 313 2.0 6.0 0.00 0.00 0.00 59 1013.1
20260906183443 89 90 2.0 9.0 0.00 0.00 0.00 59 1013.2
20260906182719 89 26 4.0 13.0 0.00 0.00 0.00 58 1013.1
20260906182215 89 71 4.0 13.0 0.00 0.00 0.00 58 1013.2
20260906181716 89 70 3.0 9.0 0.00 0.00 0.00 59 1013.2
20260906181213 88 315 3.0 8.0 0.00 0.00 0.00 58 1013.3
20260906180712 88 62 2.0 8.0 0.00 0.00 0.00 58 1013.2
20260906180436 88 36 3.0 11.0 0.00 0.00 0.00 62 1013.3
20260906175936 88 0 3.0 11.0 0.00 0.00 0.00 61 1013.4
20260906175209 88 44 4.0 10.0 0.00 0.00 0.00 65 1013.4
20260906174709 87 51 4.0 11.0 0.00 0.00 0.00 64 1013.5
20260906174209 87 84 4.0 12.0 0.00 0.00 0.00 62 1013.5
20260906173710 87 71 4.0 12.0 0.00 0.00 0.00 65 1013.4
20260906173209 87 17 4.0 10.0 0.00 0.00 0.00 66 1013.3
20260906172709 87 115 3.0 9.0 0.00 0.00 0.00 68 1013.3
20260906172207 87 348 3.0 7.0 0.00 0.00 0.00 68 1013.3
20260906171707 87 91 2.0 7.0 0.00 0.00 0.00 69 1013.4
20260906171205 87 40 3.0 9.0 0.00 0.00 0.00 67 1013.4
20260906170704 87 26 3.0 9.0 0.00 0.00 0.00 66 1013.4
20260906170159 87 82 3.0 7.0 0.00 0.00 0.00 69 1013.4
20260906165655 87 344 3.0 7.0 0.00 0.00 0.00 69 1013.4
20260906165418 86 138 3.0 9.0 0.00 0.00 0.00 71 1013.5
20260906164641 85 67 3.0 9.0 0.00 0.00 0.00 71 1013.5
20260906163633 84 23 3.0 8.0 0.00 0.00 0.00 73 1013.7
20260906163133 84 350 2.0 5.0 0.00 0.00 0.00 73 1013.8
20260906162633 84 16 3.0 6.0 0.00 0.00 0.00 74 1014.0
20260906162131 83 70 3.0 8.0 0.00 0.00 0.00 73 1014.3
20260906161630 83 349 3.0 6.0 0.00 0.00 0.00 73 1014.5
20260906161129 84 346 3.0 6.0 0.00 0.00 0.00 73 1014.5
20260906160629 84 322 3.0 7.0 0.00 0.00 0.00 74 1014.3
20260906160346 84 332 2.0 8.0 0.00 0.00 0.00 73 1014.3
20260906155627 84 0 2.0 8.0 0.00 0.00 0.00 72 1014.1
20260906155127 84 349 2.0 6.0 0.00 0.00 0.00 72 1014.1
20260906154853 85 346 2.0 8.0 0.00 0.00 0.00 72 1014.4
20260906154128 85 117 2.0 8.0 0.00 0.00 0.00 73 1014.1
20260906153627 85 51 2.0 7.0 0.00 0.00 0.00 73 1013.9
20260906153127 84 43 2.0 7.0 0.00 0.00 0.00 73 1013.9
20260906152627 84 135 3.0 8.0 0.00 0.00 0.00 75 1014.0
20260906152127 84 59 3.0 9.0 0.00 0.00 0.00 73 1014.0
20260906151625 84 125 3.0 9.0 0.00 0.00 0.00 75 1014.0
20260906151126 84 91 3.0 8.0 0.00 0.00 0.00 75 1014.0
20260906150620 83 84 1.0 7.0 0.00 0.00 0.00 74 1013.9
20260906150114 83 37 1.0 3.0 0.00 0.00 0.00 74 1014.0
20260906145609 83 40 1.0 3.0 0.00 0.00 0.00 74 1014.1
20260906145103 83 40 1.0 5.0 0.00 0.00 0.00 74 1014.0
20260906144556 83 57 2.0 6.0 0.00 0.00 0.00 74 1013.9
20260906144050 83 42 2.0 6.0 0.00 0.00 0.00 77 1013.9
20260906143802 83 91 3.0 9.0 0.00 0.00 0.00 77 1013.9
20260906143038 82 89 4.0 10.0 0.00 0.00 0.00 77 1013.8
20260906142800 82 117 4.0 10.0 0.00 0.00 0.00 78 1013.9
20260906142026 81 98 3.0 8.0 0.00 0.00 0.00 80 1013.9
20260906141749 81 78 3.0 8.0 0.00 0.00 0.00 80 1013.9
20260906141014 80 92 3.0 8.0 0.00 0.00 0.00 82 1013.8
20260906140508 80 67 2.0 7.0 0.00 0.00 0.00 83 1013.8
20260906140002 79 30 3.0 9.0 0.00 0.00 0.00 86 1013.8
20260906135718 79 119 4.0 10.0 0.00 0.00 0.00 87 1013.8
20260906134950 78 84 3.0 10.0 0.00 0.00 0.00 89 1013.8
20260906134707 77 0 2.0 8.0 0.00 0.00 0.00 89 1013.8
20260906133940 77 112 2.0 8.0 0.00 0.00 0.00 91 1013.7
20260906133432 76 102 2.0 6.0 0.00 0.00 0.00 91 1013.7
20260906132927 76 96 2.0 6.0 0.00 0.00 0.00 92 1013.8
20260906132420 75 109 2.0 6.0 0.00 0.00 0.00 92 1013.7
20260906131914 75 57 2.0 6.0 0.00 0.00 0.00 93 1013.7
20260906131408 75 102 2.0 7.0 0.00 0.00 0.00 93 1013.8
20260906130902 74 57 2.0 7.0 0.00 0.00 0.00 93 1013.7
20260906130616 74 57 2.0 4.0 0.00 0.00 0.00 93 1013.7
20260906125855 74 71 2.0 5.0 0.00 0.00 0.00 94 1013.7
20260906125355 74 50 2.0 5.0 0.00 0.00 0.00 94 1013.6
20260906124855 73 86 2.0 4.0 0.00 0.00 0.00 94 1013.4
20260906124355 73 84 1.0 4.0 0.00 0.00 0.00 94 1013.6
20260906123855 73 84 1.0 4.0 0.00 0.00 0.00 94 1013.5
20260906123353 73 80 1.0 4.0 0.00 0.00 0.00 94 1013.4
20260906122853 73 52 0.0 3.0 0.00 0.00 0.00 94 1013.3
20260906122353 72 299 0.0 0.0 0.00 0.00 0.00 94 1013.3
20260906121853 72 292 0.0 0.0 0.00 0.00 0.00 94 1013.2
20260906121351 72 292 0.0 1.0 0.00 0.00 0.00 93 1013.2
20260906120852 72 292 0.0 1.0 0.00 0.00 0.00 93 1013.1
20260906120351 72 292 0.0 1.0 0.00 0.00 0.00 94 1012.9
20260906115851 71 292 0.0 1.0 0.00 0.00 0.00 93 1012.9
20260906115612 71 292 0.0 1.0 0.00 0.00 0.00 93 1012.7
20260906114850 71 292 0.0 1.0 0.00 0.00 0.00 93 1012.6
20260906114348 71 292 0.0 1.0 0.00 0.00 0.00 93 1012.6
20260906113849 71 292 0.0 0.0 0.00 0.00 0.00 93 1012.4
20260906113608 71 292 0.0 0.0 0.00 0.00 0.00 93 1012.4
20260906112845 71 292 0.0 0.0 0.00 0.00 0.00 93 1012.5
20260906112609 71 292 0.0 0.0 0.00 0.00 0.00 93 1012.6
20260906111844 71 292 0.0 0.0 0.00 0.00 0.00 92 1012.6
20260906111343 71 292 0.0 0.0 0.00 0.00 0.00 92 1012.6
20260906110843 71 292 0.0 0.0 0.00 0.00 0.00 92 1012.6
20260906110341 71 292 0.0 0.0 0.00 0.00 0.00 92 1012.5
20260906105840 71 292 0.0 1.0 0.00 0.00 0.00 93 1012.6
20260906105603 71 292 0.0 1.0 0.00 0.00 0.00 93 1012.4
20260906104840 71 292 0.0 0.0 0.00 0.00 0.00 92 1012.3
20260906104339 71 292 0.0 0.0 0.00 0.00 0.00 92 1012.3
20260906103837 71 292 0.0 1.0 0.00 0.00 0.00 92 1012.3
20260906103335 71 292 0.0 1.0 0.00 0.00 0.00 92 1012.3
20260906102835 71 292 0.0 0.0 0.00 0.00 0.00 92 1012.3
20260906102335 72 292 0.0 0.0 0.00 0.00 0.00 92 1012.3
20260906102100 72 292 0.0 0.0 0.00 0.00 0.00 92 1012.2
20260906101556 72 292 0.0 0.0 0.00 0.00 0.00 92 1012.1
20260906100826 72 292 0.0 0.0 0.00 0.00 0.00 92 1012.0
20260906100325 72 292 0.0 0.0 0.00 0.00 0.00 92 1012.0
20260906095823 72 292 0.0 0.0 0.00 0.00 0.00 92 1012.0
20260906095323 72 292 0.0 0.0 0.00 0.00 0.00 92 1012.0
20260906094821 72 292 0.0 0.0 0.00 0.00 0.00 92 1011.9
20260906094322 72 292 0.0 1.0 0.00 0.00 0.00 92 1011.8
20260906093822 72 292 0.0 1.0 0.00 0.00 0.00 92 1011.7
20260906093321 72 292 0.0 0.0 0.00 0.00 0.00 92 1011.7
20260906092819 72 292 0.0 0.0 0.00 0.00 0.00 92 1011.7
20260906092317 72 292 0.0 0.0 0.00 0.00 0.00 92 1011.6
20260906092034 72 292 0.0 0.0 0.00 0.00 0.00 92 1011.6
20260906091535 72 292 0.0 0.0 0.00 0.00 0.00 92 1011.6
20260906090817 72 292 0.0 1.0 0.00 0.00 0.00 92 1011.7
20260906090533 72 292 0.0 1.0 0.00 0.00 0.00 92 1011.8
20260906085816 72 292 0.0 1.0 0.00 0.00 0.00 92 1011.9
20260906085313 72 292 0.0 1.0 0.00 0.00 0.00 92 1011.8
20260906084813 72 292 0.0 2.0 0.00 0.00 0.00 91 1011.8
20260906084313 72 292 1.0 2.0 0.00 0.00 0.00 91 1011.8
20260906083813 72 292 0.0 2.0 0.00 0.00 0.00 91 1011.8
20260906083534 73 292 0.0 0.0 0.00 0.00 0.00 91 1011.6
20260906082812 73 292 0.0 0.0 0.00 0.00 0.00 91 1011.6
20260906082313 73 292 0.0 1.0 0.00 0.00 0.00 91 1011.6
20260906081813 73 292 0.0 2.0 0.00 0.00 0.00 91 1011.5
20260906081313 73 292 0.0 2.0 0.00 0.01 0.00 91 1011.5
20260906081031 73 292 0.0 1.0 0.00 0.01 0.00 91 1011.4
20260906080309 73 292 0.0 1.0 0.00 0.01 0.00 91 1011.5
20260906075809 73 292 0.0 1.0 0.00 0.02 0.00 91 1011.4
20260906075310 73 292 0.0 1.0 0.00 0.02 0.00 91 1011.4
20260906074809 73 292 0.0 1.0 0.00 0.02 0.00 91 1011.3
20260906074309 73 292 0.0 1.0 0.00 0.02 0.00 90 1011.3
20260906073809 73 292 1.0 2.0 0.00 0.02 0.00 90 1011.2
20260906073308 73 292 1.0 2.0 0.00 0.02 0.00 90 1011.2
20260906072809 73 292 0.0 1.0 0.00 0.02 0.00 90 1011.2
20260906072306 73 292 0.0 1.0 0.00 0.02 0.00 90 1011.2
20260906071805 73 292 0.0 1.0 0.00 0.02 0.00 90 1011.2
20260906071305 73 292 0.0 1.0 0.00 0.02 0.00 90 1011.2
20260906070805 74 292 0.0 2.0 0.00 0.02 0.00 90 1011.4
20260906070305 74 292 0.0 2.0 0.00 0.02 0.00 90 1011.4
20260906065805 74 292 1.0 2.0 0.00 0.02 0.00 90 1011.4
20260906065521 74 292 1.0 2.0 0.00 0.02 0.00 90 1011.3
20260906064802 74 292 0.0 2.0 0.00 0.02 0.00 89 1011.4
20260906064300 74 292 0.0 0.0 0.00 0.02 0.00 89 1011.4
20260906063758 74 292 0.0 1.0 0.00 0.02 0.00 89 1011.4
20260906063258 74 292 1.0 2.0 0.00 0.02 0.00 89 1011.7
20260906063017 74 292 1.0 2.0 0.00 0.02 0.00 89 1011.7
20260906062251 74 292 0.0 2.0 0.00 0.02 0.00 89 1011.7
20260906062006 74 292 0.0 1.0 0.00 0.02 0.00 89 1011.7
20260906061249 74 292 0.0 1.0 0.00 0.02 0.00 89 1011.8
20260906060748 74 292 0.0 1.0 0.00 0.02 0.00 89 1011.8
20260906060248 74 292 0.0 1.0 0.00 0.02 0.00 89 1011.8
20260906055748 74 292 1.0 2.0 0.00 0.02 0.00 89 1011.9
20260906055248 74 292 1.0 2.0 0.00 0.02 0.00 88 1012.0
20260906055004 74 292 1.0 2.0 0.00 0.02 0.00 88 1012.0
20260906054246 74 292 0.0 2.0 0.00 0.02 0.00 88 1012.0
20260906053746 74 292 0.0 1.0 0.00 0.02 0.00 88 1012.0
20260906053504 74 292 1.0 2.0 0.00 0.02 0.00 88 1012.2
20260906052744 74 292 0.0 2.0 0.00 0.02 0.00 88 1012.3
20260906052244 74 292 0.0 1.0 0.00 0.02 0.00 87 1012.2
20260906051742 74 292 0.0 0.0 0.00 0.02 0.00 87 1012.3
20260906051242 74 292 0.0 0.0 0.00 0.02 0.00 87 1012.3
20260906050740 74 292 0.0 0.0 0.00 0.02 0.00 87 1012.3
20260906050240 74 292 0.0 0.0 0.00 0.02 0.00 87 1012.4
20260906045734 74 292 0.0 0.0 0.00 0.02 0.00 87 1012.4
20260906045230 74 292 0.0 0.0 0.00 0.02 0.00 87 1012.4
20260906044730 74 292 0.0 1.0 0.00 0.02 0.00 87 1012.3
20260906044230 74 292 0.0 1.0 0.00 0.02 0.00 87 1012.4
20260906043957 74 292 0.0 1.0 0.00 0.02 0.00 87 1012.4
20260906043228 74 292 0.0 1.0 0.00 0.02 0.00 87 1012.5
20260906042957 75 292 0.0 1.0 0.00 0.02 0.00 87 1012.4
20260906042228 75 292 1.0 2.0 0.00 0.02 0.00 86 1012.5
20260906041944 75 292 1.0 2.0 0.00 0.02 0.00 86 1012.6
20260906041226 75 292 0.0 2.0 0.00 0.02 0.00 86 1012.6
20260906040726 75 292 0.0 1.0 0.00 0.02 0.00 86 1012.7
20260906040226 75 292 1.0 1.0 0.00 0.02 0.00 85 1012.8
20260906035726 75 292 0.0 1.0 0.00 0.02 0.02 85 1012.9
20260906035227 75 292 0.0 1.0 0.00 0.02 0.02 85 1012.9
20260906034725 75 292 1.0 2.0 0.00 0.02 0.02 84 1012.9
20260906034220 75 292 1.0 2.0 0.00 0.02 0.02 84 1012.9
20260906033719 75 292 0.0 1.0 0.00 0.02 0.02 83 1012.8
20260906033219 76 292 0.0 1.0 0.00 0.02 0.02 83 1012.9
20260906032720 76 292 0.0 0.0 0.00 0.02 0.02 82 1013.0
20260906032214 76 292 0.0 1.0 0.00 0.02 0.02 82 1013.1
20260906031712 76 292 0.0 1.0 0.00 0.02 0.02 81 1013.1
20260906031208 76 292 0.0 1.0 0.00 0.02 0.02 81 1013.1
20260906030707 76 292 0.0 1.0 0.00 0.02 0.02 81 1013.1
20260906030204 76 292 0.0 1.0 0.00 0.02 0.02 81 1013.1
20260906025704 76 292 0.0 1.0 0.00 0.02 0.02 81 1012.9
20260906025204 76 292 0.0 1.0 0.00 0.02 0.02 80 1012.8
20260906024702 77 292 0.0 1.0 0.00 0.02 0.02 80 1012.8
20260906024203 77 292 0.0 0.0 0.00 0.02 0.02 79 1012.7
20260906023703 77 292 0.0 1.0 0.00 0.02 0.02 79 1012.4
20260906023200 77 292 0.0 1.0 0.00 0.02 0.02 79 1012.4
20260906022922 77 292 0.0 1.0 0.00 0.02 0.02 78 1012.4
20260906022429 77 292 0.0 0.0 0.00 0.02 0.02 78 1012.4
20260906021701 78 292 0.0 1.0 0.00 0.02 0.02 78 1012.3
20260906021200 78 292 0.0 1.0 0.00 0.02 0.02 77 1012.4
20260906020700 78 292 0.0 1.0 0.00 0.02 0.02 77 1012.5
20260906020201 78 292 1.0 3.0 0.00 0.02 0.02 77 1012.6
20260906015158 78 292 1.0 3.0 0.00 0.02 0.02 76 1012.6
20260906014651 78 292 1.0 2.0 0.00 0.02 0.02 76 1012.3
20260906014146 78 292 1.0 2.0 0.00 0.02 0.02 75 1012.3
20260906013640 79 292 1.0 3.0 0.00 0.02 0.02 75 1012.3
20260906013134 79 292 1.0 3.0 0.00 0.02 0.02 75 1012.3
20260906012628 79 292 1.0 2.0 0.00 0.02 0.02 74 1012.4
20260906012122 79 292 0.0 2.0 0.00 0.02 0.02 74 1012.4
20260906011615 80 292 1.0 3.0 0.00 0.02 0.02 74 1012.3
20260906011110 80 292 1.0 3.0 0.00 0.02 0.02 74 1012.4
20260906010603 80 292 0.0 2.0 0.00 0.02 0.02 74 1012.3
20260906010322 80 292 0.0 2.0 0.00 0.02 0.02 73 1012.3
20260906005551 80 292 0.0 2.0 0.00 0.02 0.02 73 1012.4
20260906005314 81 292 1.0 2.0 0.00 0.02 0.02 72 1012.3
20260906004541 81 292 1.0 2.0 0.00 0.02 0.02 72 1012.1
20260906004034 81 292 0.0 2.0 0.00 0.02 0.02 72 1012.0
20260906003528 81 292 0.0 1.0 0.00 0.02 0.02 72 1012.0
20260906003022 82 292 1.0 2.0 0.00 0.02 0.02 72 1012.0
20260906002516 82 292 1.0 2.0 0.00 0.02 0.02 71 1011.8
20260906002010 82 292 1.0 3.0 0.00 0.02 0.02 71 1011.8
20260906001504 82 292 1.0 3.0 0.00 0.02 0.02 70 1011.8
20260906000958 83 292 1.0 3.0 0.00 0.02 0.02 70 1011.7
20260906000452 83 292 1.0 3.0 0.00 0.02 0.02 70 1011.7
20260905235946 83 292 1.0 3.0 0.00 0.02 0.02 69 1011.7
20260905235701 83 293 1.0 2.0 0.00 0.02 0.02 69 1011.7
20260905234933 84 293 1.0 2.0 0.00 0.02 0.02 68 1011.5
20260905234428 84 293 0.0 1.0 0.00 0.02 0.02 67 1011.5
20260905234153 84 293 0.0 1.0 0.00 0.02 0.02 67 1011.5
20260905233416 84 293 1.0 1.0 0.00 0.02 0.02 66 1011.4
20260905232910 84 293 1.0 1.0 0.00 0.02 0.02 65 1011.2